| time (UTC) | temp C | wind direction | speed KPH | gust KPH | rain 1hr cm | rain 24hr cm | rain mn cm | humidity % | barometer mb |
| 20260502203103 | 5 | 300 | 20.9 | 29.0 | 0.00 | 0.08 | 0.00 | 84 | 1014.1 |
| 20260502201546 | 5 | 312 | 22.5 | 27.4 | 0.00 | 0.08 | 0.00 | 84 | 1014.3 |
| 20260502200041 | 5 | 290 | 19.3 | 30.6 | 0.00 | 0.08 | 0.00 | 84 | 1014.5 |
| 20260502194547 | 5 | 313 | 24.1 | 29.0 | 0.00 | 0.08 | 0.00 | 85 | 1014.4 |
| 20260502193058 | 5 | 300 | 22.5 | 32.2 | 0.00 | 0.08 | 0.00 | 85 | 1014.6 |
| 20260502191545 | 5 | 319 | 25.7 | 32.2 | 0.00 | 0.08 | 0.00 | 84 | 1014.6 |
| 20260502190048 | 5 | 325 | 24.1 | 30.6 | 0.00 | 0.08 | 0.00 | 84 | 1014.7 |
| 20260502184550 | 5 | 313 | 22.5 | 30.6 | 0.00 | 0.08 | 0.00 | 84 | 1014.6 |
| 20260502183039 | 5 | 313 | 24.1 | 29.0 | 0.00 | 0.08 | 0.00 | 83 | 1014.5 |
| 20260502181546 | 5 | 292 | 19.3 | 27.4 | 0.00 | 0.08 | 0.00 | 84 | 1014.5 |
| 20260502163045 | 4 | 304 | 22.5 | 27.4 | 0.00 | 0.08 | 0.00 | 84 | 1014.4 |
| 20260502161549 | 4 | 322 | 22.5 | 29.0 | 0.00 | 0.08 | 0.00 | 85 | 1014.5 |
| 20260502151607 | 4 | 328 | 30.6 | 35.4 | 0.00 | 0.08 | 0.00 | 82 | 1014.6 |
| 20260502123046 | 5 | 291 | 20.9 | 32.2 | 0.00 | 0.08 | 0.00 | 83 | 1015.0 |
| 20260502121544 | 4 | 273 | 25.7 | 37.0 | 0.00 | 0.08 | 0.00 | 83 | 1015.0 |
| 20260502114540 | 3 | 250 | 9.7 | 19.3 | 0.00 | 0.08 | 0.00 | 85 | 1014.9 |
| 20260502113050 | 3 | 268 | 14.5 | 22.5 | 0.00 | 0.08 | 0.00 | 85 | 1014.8 |
| 20260502111546 | 3 | 248 | 17.7 | 29.0 | 0.00 | 0.08 | 0.00 | 86 | 1014.8 |
| 20260502110048 | 3 | 277 | 20.9 | 32.2 | 0.00 | 0.08 | 0.00 | 87 | 1014.7 |
| 20260502104544 | 3 | 272 | 22.5 | 33.8 | 0.00 | 0.08 | 0.00 | 87 | 1014.6 |
| 20260502103047 | 3 | 267 | 17.7 | 27.4 | 0.00 | 0.08 | 0.00 | 87 | 1014.4 |
| 20260502101603 | 4 | 280 | 24.1 | 46.7 | 0.00 | 0.08 | 0.00 | 89 | 1014.0 |
| 20260502064548 | 5 | 303 | 24.1 | 30.6 | 0.00 | 0.08 | 0.00 | 88 | 1012.8 |
| 20260502063042 | 5 | 311 | 19.3 | 33.8 | 0.00 | 0.08 | 0.00 | 92 | 1013.1 |
| 20260502061548 | 5 | 241 | 6.4 | 11.3 | 0.00 | 0.08 | 0.00 | 92 | 1013.0 |
| 20260502060049 | 5 | 234 | 6.4 | 9.7 | 0.00 | 0.08 | 0.00 | 93 | 1013.0 |
| 20260502054559 | 5 | 360 | 4.8 | 11.3 | 0.00 | 0.08 | 0.00 | 93 | 1012.9 |
| 20260502053045 | 5 | 226 | 6.4 | 14.5 | 0.00 | 0.08 | 0.00 | 93 | 1013.2 |
| 20260502051546 | 5 | 236 | 8.0 | 14.5 | 0.00 | 0.08 | 0.00 | 94 | 1013.2 |
| 20260502050049 | 4 | 240 | 9.7 | 14.5 | 0.00 | 0.08 | 0.00 | 94 | 1013.2 |
| 20260502044544 | 4 | 205 | 6.4 | 12.9 | 0.00 | 0.08 | 0.00 | 94 | 1013.1 |
| 20260502043056 | 4 | 360 | 6.4 | 12.9 | 0.00 | 0.08 | 0.00 | 94 | 1013.2 |
| 20260502041608 | 4 | 360 | 6.4 | 9.7 | 0.00 | 0.08 | 0.00 | 94 | 1013.1 |
| 20260502040051 | 4 | 208 | 6.4 | 11.3 | 0.00 | 0.08 | 0.00 | 94 | 1013.1 |
| 20260502034547 | 4 | 205 | 6.4 | 9.7 | 0.00 | 0.08 | 0.08 | 94 | 1013.1 |
| 20260502033043 | 3 | 360 | 4.8 | 8.0 | 0.00 | 0.08 | 0.08 | 94 | 1013.0 |